FW8431 Weather Reports


Display with metric or nautical units.
time (UTC)temp
F
wind
direction
speed
MPH
gust
MPH
rain 1hr
in
rain 24hr
in
rain mn
in
humidity
%
barometer
mb
20260507141557 59 0 0.0 3.0 0.00 0.78 0.29 97 1012.4
20260507134553 58 282 0.0 2.0 0.00 0.79 0.29 97 1012.5
20260507133105 58 185 1.0 3.0 0.00 0.79 0.29 97 1012.5
20260507131557 57 236 2.0 5.0 0.00 0.79 0.29 97 1012.9
20260507130108 58 214 1.0 4.0 0.01 0.79 0.29 97 1012.5
20260507124558 57 0 0.0 0.0 0.01 0.79 0.29 97 1012.5
20260507123057 57 0 0.0 0.0 0.01 0.79 0.29 97 1012.8
20260507121601 57 0 0.0 1.0 0.01 0.79 0.29 97 1012.4
20260507120053 57 0 0.0 0.0 0.03 0.78 0.28 97 1012.3
20260507114550 56 0 0.0 0.0 0.10 0.78 0.28 97 1012.7
20260507113052 56 0 0.0 0.0 0.13 0.78 0.28 97 1012.9
20260507111552 56 0 0.0 0.0 0.13 0.77 0.27 97 1013.2
20260507110101 56 0 0.0 0.0 0.11 0.75 0.25 97 1013.5
20260507104557 56 0 0.0 0.0 0.04 0.68 0.18 97 1013.7
20260507103117 56 0 0.0 0.0 0.01 0.65 0.15 97 1013.1
20260507101550 56 0 0.0 0.0 0.00 0.64 0.14 97 1012.8
20260507100103 56 0 0.0 2.0 0.00 0.64 0.14 97 1012.8
20260507094556 55 30 0.0 2.0 0.00 0.64 0.14 97 1013.0
20260507093050 55 0 0.0 0.0 0.00 0.64 0.14 97 1012.1
20260507091554 55 0 0.0 0.0 0.00 0.64 0.14 97 1012.5
20260507090057 55 0 0.0 0.0 0.00 0.64 0.14 97 1012.5
20260507084604 55 0 0.0 0.0 0.00 0.64 0.14 97 1012.7
20260507083051 56 0 0.0 1.0 0.00 0.64 0.14 96 1012.5
20260507081552 56 0 0.0 1.0 0.00 0.64 0.14 97 1012.9
20260507080054 56 30 0.0 2.0 0.00 0.64 0.14 97 1012.9
20260507074552 57 0 0.0 1.0 0.00 0.64 0.14 97 1013.7
20260507073051 57 0 0.0 0.0 0.00 0.64 0.14 97 1013.2
20260507071557 57 0 0.0 0.0 0.00 0.64 0.14 97 1013.0
20260507070105 57 0 0.0 0.0 0.00 0.64 0.14 97 1013.1
20260507064558 57 30 0.0 2.0 0.01 0.64 0.14 97 1012.9
20260507063051 57 0 0.0 0.0 0.01 0.64 0.14 97 1013.9
20260507061554 57 0 0.0 0.0 0.01 0.64 0.14 97 1013.8
20260507060101 57 0 0.0 0.0 0.02 0.64 0.14 96 1014.3
20260507054608 58 0 0.0 0.0 0.08 0.63 0.13 96 1014.5
20260507053106 58 0 0.0 2.0 0.13 0.63 0.13 96 1015.0
20260507051557 58 0 0.0 0.0 0.13 0.63 0.13 97 1015.3
20260507050055 58 0 0.0 1.0 0.12 0.62 0.12 97 1015.2
20260507044556 58 0 0.0 1.0 0.07 0.54 0.04 97 1015.9
20260507043054 58 0 0.0 3.0 0.03 0.50 0.00 96 1015.4
20260507041604 58 0 0.0 3.0 0.03 0.50 0.00 96 1015.5
20260507040054 58 0 0.0 0.0 0.03 0.50 0.00 96 1015.7
20260507034552 58 0 0.0 0.0 0.00 0.47 0.47 96 1015.4
20260507033053 58 0 0.0 0.0 0.00 0.47 0.47 96 1015.4
20260507031548 58 0 0.0 0.0 0.00 0.47 0.47 96 1015.4
20260507030054 59 0 0.0 0.0 0.01 0.47 0.47 96 1014.9
20260507024553 59 0 0.0 0.0 0.04 0.47 0.47 96 1015.7
20260507023048 59 0 0.0 1.0 0.04 0.47 0.47 96 1015.4
20260507021622 59 30 0.0 2.0 0.04 0.47 0.47 95 1015.0
20260507020108 59 30 2.0 9.0 0.05 0.46 0.46 96 1013.9
20260507014618 59 298 0.0 1.0 0.03 0.43 0.43 96 1017.2
20260507013051 59 0 0.0 1.0 0.04 0.43 0.43 95 1016.5
20260507011558 59 0 0.0 0.0 0.06 0.43 0.43 95 1016.0
20260507010052 59 0 0.0 1.0 0.06 0.41 0.41 95 1016.0
20260507004552 60 0 1.0 2.0 0.06 0.40 0.40 94 1015.7
20260507003049 60 0 0.0 1.0 0.05 0.39 0.39 94 1015.3
20260507001601 60 0 0.0 2.0 0.07 0.37 0.37 94 1015.5
20260507000113 60 0 0.0 1.0 0.06 0.35 0.35 93 1014.9
20260506234612 61 0 0.0 1.0 0.06 0.34 0.34 93 1015.0
20260506233055 61 0 0.0 3.0 0.07 0.34 0.34 92 1014.7
20260506231548 61 360 0.0 1.0 0.03 0.30 0.30 92 1015.6
20260506224553 62 0 0.0 3.0 0.01 0.28 0.28 90 1015.2
20260506223052 62 0 0.0 3.0 0.02 0.27 0.27 90 1015.4
20260506221600 62 0 0.0 2.0 0.02 0.27 0.27 90 1014.6
20260506220053 62 278 1.0 3.0 0.03 0.27 0.27 88 1014.4
20260506214559 63 257 1.0 7.0 0.03 0.27 0.27 87 1015.1
20260506213056 63 227 3.0 8.0 0.01 0.25 0.25 86 1015.6
20260506211553 65 115 0.0 8.0 0.01 0.25 0.25 83 1015.0
20260506210051 65 238 4.0 11.0 0.00 0.24 0.24 79 1015.6
20260506204556 67 268 4.0 10.0 0.00 0.24 0.24 76 1015.7
20260506203049 67 202 3.0 11.0 0.00 0.24 0.24 76 1015.7
20260506201550 67 257 6.0 11.0 0.00 0.24 0.24 74 1015.6
20260506200055 68 241 5.0 10.0 0.00 0.24 0.24 72 1015.6
20260506194556 68 200 5.0 15.0 0.00 0.24 0.24 73 1015.4
20260506193057 68 234 5.0 16.0 0.00 0.24 0.24 73 1015.7
20260506191601 68 251 8.0 18.0 0.00 0.24 0.24 72 1015.8
20260506190053 70 230 7.0 16.0 0.00 0.24 0.24 70 1015.6
20260506184557 69 286 4.0 11.0 0.00 0.24 0.24 72 1015.6
20260506183102 68 205 4.0 9.0 0.00 0.24 0.24 76 1015.3
20260506181602 67 223 2.0 9.0 0.00 0.24 0.24 77 1015.2
20260506180058 66 225 2.0 11.0 0.00 0.24 0.24 81 1015.3
20260506174558 66 267 1.0 6.0 0.00 0.24 0.24 85 1015.2
20260506173122 64 215 1.0 7.0 0.00 0.24 0.24 88 1015.2
20260506171602 62 242 2.0 8.0 0.00 0.24 0.24 90 1015.4
20260506170105 61 209 2.0 5.0 0.00 0.24 0.24 94 1015.7
20260506164551 61 122 0.0 4.0 0.01 0.24 0.24 95 1016.0
20260506163058 59 253 2.0 5.0 0.02 0.24 0.24 94 1017.2
20260506161553 59 246 1.0 5.0 0.11 0.24 0.24 94 1017.8
20260506160057 59 217 3.0 8.0 0.16 0.24 0.24 93 1018.0
20260506154611 59 194 2.0 5.0 0.19 0.23 0.23 92 1017.8
20260506153056 59 0 1.0 7.0 0.19 0.22 0.22 91 1017.0
20260506151555 60 211 1.0 4.0 0.12 0.13 0.13 89 1017.6
20260506150050 61 0 0.0 2.0 0.07 0.08 0.08 88 1016.8
20260506144601 61 0 1.0 3.0 0.03 0.04 0.04 87 1016.5
20260506143056 61 0 2.0 6.0 0.02 0.03 0.03 83 1016.1